Regional Weather Roundup
Issued by NWS

Home | Current Version | Previous Version | Graphics & Text | Print | Product List | Glossary On
Versions: 1 2 3 4 5 6 7 8 9 10 11 12 13 14 15 16 17 18 19 20 21 22 23 24 25 26 27 28 29 30 31 32 33 34 35 36 37 38 39 40 41 42 43 44 45 46 47 48 49 50
000
ASUS45 KBOI 191210
RWRID
WEATHER ROUNDUP FOR IDAHO
NATIONAL WEATHER SERVICE BOISE ID
500 AM MST FRI DEC 19 2014

NOTE: "FAIR" INDICATES FEW OR NO CLOUDS BELOW 12000 FEET
WITH NO SIGNIFICANT WEATHER AND/OR OBSTRUCTIONS TO VISIBILITY

IDZ012-014-191300-
SOUTHWEST IDAHO


CITY           SKY/WX    TMP DP  RH WIND       PRES   REMARKS
BOISE          CLOUDY    44  33  65 SE12      30.04S
CALDWELL       CLOUDY    39  28  65 E10       30.06F WCI  32
MOUNTAIN HOME  CLOUDY    39  31  74 SE15      30.07S WCI  30
$$

IDZ016-017-191300-
SOUTHCENTRAL IDAHO


CITY           SKY/WX    TMP DP  RH WIND       PRES   REMARKS
BURLEY         MOCLDY    37  26  64 S13       30.09S WCI  29
JEROME         MOCLDY    33  28  81 NE10      30.09F WCI  25
TWIN FALLS     MOCLDY    40  26  57 S12       30.07F WCI  33
$$

IDZ019>023-191300-
SOUTHEAST IDAHO


CITY           SKY/WX    TMP DP  RH WIND       PRES   REMARKS
IDAHO FALLS    MOCLDY    31  28  89 SW3       30.12S
POCATELLO      CLOUDY    37  29  72 S13       30.12S WCI  29
REXBURG        CLOUDY    32  30  92 W3        30.12R
$$

IDZ006-010-011-018-031-032-191300-
CENTRAL IDAHO MOUNTAINS


CITY           SKY/WX    TMP DP  RH WIND       PRES   REMARKS
MCCALL         CLOUDY    32  31  96 SE3       30.00F
HAILEY         CLOUDY    32  30  93 NW7       30.11F WCI  26
STANLEY          N/A     31  25  78 SE8       30.05R WCI  23
SALMON         CLOUDY    27  23  86 CALM      30.06S
CHALLIS        CLOUDY    26  23  88 CALM      30.06R
$$

IDZ002-004-006-007-026-191300-
NORTHERN IDAHO


CITY           SKY/WX    TMP DP  RH WIND       PRES   REMARKS
LEWISTON       CLOUDY    44  37  76 E7        29.90F
LOWELL           N/A     36  34  92 CALM      30.03F
COEUR D`ALENE  CLOUDY    37  34  87 N5        29.88F WCI  34
MULLAN PASS    SNOW      30  28  92 VRB5      29.87F VSB 1/4 WCI  25
$$



USA.gov is the U.S. government's official web portal to all federal, state and local government web resources and services.